Time,TemperatureF,DewpointF,PressureIn,WindDirection,WindDirectionDegrees,WindSpeedMPH,WindSpeedGustMPH,Humidity,HourlyPrecipIn,Conditions,Clouds,dailyrainin,SoftwareType,DateUTC
2013-06-15 00:02:00,76.0,-99.9,-100.00,North,-999,-999.0,-999.0,-999,0.00,,,0.00,,2013-06-15 05:02:00,
2013-06-15 00:12:00,76.0,-99.9,-100.00,North,-999,-999.0,-999.0,-999,0.00,,,0.00,,2013-06-15 05:12:00,
2013-06-15 00:22:00,76.0,-99.9,-100.00,North,-999,-999.0,-999.0,-999,0.00,,,0.00,,2013-06-15 05:22:00,
2013-06-15 00:30:00,70.0,-99.9,-100.00,North,-999,-999.0,-999.0,-999,0.00,,,0.00,,2013-06-15 05:30:00,
2013-06-15 00:53:00,70.0,-99.9,-100.00,North,-999,-999.0,-999.0,-999,0.00,,,0.00,,2013-06-15 05:53:00,
2013-06-15 01:02:00,70.0,-99.9,-100.00,North,-999,-999.0,-999.0,-999,0.00,,,0.00,,2013-06-15 06:02:00,
2013-06-15 01:12:00,70.0,-99.9,-100.00,North,-999,-999.0,-999.0,-999,0.00,,,0.00,,2013-06-15 06:12:00,
2013-06-15 01:24:00,70.0,-99.9,-100.00,North,-999,-999.0,-999.0,-999,0.00,,,0.00,,2013-06-15 06:24:00,
2013-06-15 01:30:00,69.0,-99.9,-100.00,North,-999,-999.0,-999.0,-999,0.00,,,0.00,,2013-06-15 06:30:00,
2013-06-15 01:53:00,69.0,-99.9,-100.00,North,-999,-999.0,-999.0,-999,0.00,,,0.00,,2013-06-15 06:53:00,
2013-06-15 02:02:00,69.0,-99.9,-100.00,North,-999,-999.0,-999.0,-999,0.00,,,0.00,,2013-06-15 07:02:00,
2013-06-15 02:12:00,69.0,-99.9,-100.00,North,-999,-999.0,-999.0,-999,0.00,,,0.00,,2013-06-15 07:12:00,
2013-06-15 02:23:00,69.0,-99.9,-100.00,North,-999,-999.0,-999.0,-999,0.00,,,0.00,,2013-06-15 07:23:00,
2013-06-15 02:30:00,68.0,-99.9,-100.00,North,-999,-999.0,-999.0,-999,0.00,,,0.00,,2013-06-15 07:30:00,
2013-06-15 02:54:00,68.0,-99.9,-100.00,North,-999,-999.0,-999.0,-999,0.00,,,0.00,,2013-06-15 07:54:00,
2013-06-15 03:03:00,68.0,-99.9,-100.00,North,-999,-999.0,-999.0,-999,0.00,,,0.00,,2013-06-15 08:03:00,
2013-06-15 03:12:00,68.0,-99.9,-100.00,North,-999,-999.0,-999.0,-999,0.00,,,0.00,,2013-06-15 08:12:00,
2013-06-15 03:22:00,68.0,-99.9,-100.00,North,-999,-999.0,-999.0,-999,0.00,,,0.00,,2013-06-15 08:22:00,
2013-06-15 03:53:00,67.0,-99.9,-100.00,North,-999,-999.0,-999.0,-999,0.00,,,0.00,,2013-06-15 08:53:00,
2013-06-15 04:30:00,69.0,-99.9,-100.00,North,-999,-999.0,-999.0,-999,0.00,,,0.00,,2013-06-15 09:30:00,
2013-06-15 04:53:00,69.0,-99.9,-100.00,North,-999,-999.0,-999.0,-999,0.00,,,0.00,,2013-06-15 09:53:00,
2013-06-15 05:02:00,69.0,-99.9,-100.00,North,-999,-999.0,-999.0,-999,0.00,,,0.00,,2013-06-15 10:02:00,
2013-06-15 05:12:00,69.0,-99.9,-100.00,North,-999,-999.0,-999.0,-999,0.00,,,0.00,,2013-06-15 10:12:00,
2013-06-15 05:23:00,69.0,-99.9,-100.00,North,-999,-999.0,-999.0,-999,0.00,,,0.00,,2013-06-15 10:23:00,
2013-06-15 05:30:00,68.0,-99.9,-100.00,North,-999,-999.0,-999.0,-999,0.00,,,-99.99,,2013-06-15 10:30:00,
2013-06-15 05:53:00,68.0,-99.9,-100.00,North,-999,-999.0,-999.0,-999,0.00,,,-99.99,,2013-06-15 10:53:00,
2013-06-15 06:02:00,68.0,-99.9,-100.00,North,-999,-999.0,-999.0,-999,0.00,,,-99.99,,2013-06-15 11:02:00,
2013-06-15 06:12:00,68.0,-99.9,-100.00,North,-999,-999.0,-999.0,-999,0.00,,,-99.99,,2013-06-15 11:12:00,
2013-06-15 06:22:00,68.0,-99.9,-100.00,North,-999,-999.0,-999.0,-999,0.00,,,-99.99,,2013-06-15 11:22:00,
2013-06-15 06:30:00,70.0,-99.9,-100.00,North,-999,-999.0,-999.0,-999,0.00,,,0.00,,2013-06-15 11:30:00,
2013-06-15 06:53:00,70.0,-99.9,-100.00,North,-999,-999.0,-999.0,-999,0.00,,,0.00,,2013-06-15 11:53:00,
2013-06-15 07:02:00,70.0,-99.9,-100.00,North,-999,-999.0,-999.0,-999,0.00,,,0.00,,2013-06-15 12:02:00,
2013-06-15 07:12:00,70.0,-99.9,-100.00,North,-999,-999.0,-999.0,-999,0.00,,,0.00,,2013-06-15 12:12:00,
2013-06-15 07:23:00,70.0,-99.9,-100.00,North,-999,-999.0,-999.0,-999,0.00,,,0.00,,2013-06-15 12:23:00,
2013-06-15 07:30:00,75.0,-99.9,-100.00,North,-999,-999.0,-999.0,-999,0.00,,,0.00,,2013-06-15 12:30:00,
2013-06-15 07:53:00,75.0,-99.9,-100.00,North,-999,-999.0,-999.0,-999,0.00,,,0.00,,2013-06-15 12:53:00,
2013-06-15 08:03:00,75.0,-99.9,-100.00,North,-999,-999.0,-999.0,-999,0.00,,,0.00,,2013-06-15 13:03:00,
2013-06-15 08:12:00,75.0,-99.9,-100.00,North,-999,-999.0,-999.0,-999,0.00,,,0.00,,2013-06-15 13:12:00,
2013-06-15 08:22:00,75.0,-99.9,-100.00,North,-999,-999.0,-999.0,-999,0.00,,,0.00,,2013-06-15 13:22:00,
2013-06-15 08:30:00,71.0,-99.9,-100.00,North,-999,-999.0,-999.0,-999,0.00,,,0.00,,2013-06-15 13:30:00,
2013-06-15 08:53:00,71.0,-99.9,-100.00,North,-999,-999.0,-999.0,-999,0.00,,,0.00,,2013-06-15 13:53:00,
2013-06-15 09:02:00,71.0,-99.9,-100.00,North,-999,-999.0,-999.0,-999,0.00,,,0.00,,2013-06-15 14:02:00,
2013-06-15 09:12:00,71.0,-99.9,-100.00,North,-999,-999.0,-999.0,-999,0.00,,,0.00,,2013-06-15 14:12:00,
2013-06-15 09:23:00,71.0,-99.9,-100.00,North,-999,-999.0,-999.0,-999,0.00,,,0.00,,2013-06-15 14:23:00,
2013-06-15 09:30:00,72.0,-99.9,-100.00,North,-999,-999.0,-999.0,-999,0.00,,,0.00,,2013-06-15 14:30:00,
2013-06-15 09:54:00,72.0,-99.9,-100.00,North,-999,-999.0,-999.0,-999,0.00,,,0.00,,2013-06-15 14:54:00,
2013-06-15 10:02:00,72.0,-99.9,-100.00,North,-999,-999.0,-999.0,-999,0.00,,,0.00,,2013-06-15 15:02:00,
2013-06-15 10:12:00,72.0,-99.9,-100.00,North,-999,-999.0,-999.0,-999,0.00,,,0.00,,2013-06-15 15:12:00,
2013-06-15 10:22:00,72.0,-99.9,-100.00,North,-999,-999.0,-999.0,-999,0.00,,,0.00,,2013-06-15 15:22:00,
2013-06-15 10:30:00,70.0,-99.9,-100.00,North,-999,-999.0,-999.0,-999,0.14,,,0.14,,2013-06-15 15:30:00,
2013-06-15 10:53:00,70.0,-99.9,-100.00,North,-999,-999.0,-999.0,-999,0.14,,,0.14,,2013-06-15 15:53:00,
2013-06-15 11:02:00,70.0,-99.9,-100.00,North,-999,-999.0,-999.0,-999,0.14,,,0.14,,2013-06-15 16:02:00,
2013-06-15 11:12:00,70.0,-99.9,-100.00,North,-999,-999.0,-999.0,-999,0.14,,,0.14,,2013-06-15 16:12:00,
2013-06-15 11:22:00,70.0,-99.9,-100.00,North,-999,-999.0,-999.0,-999,0.14,,,0.14,,2013-06-15 16:22:00,
2013-06-15 11:30:00,68.0,-99.9,-100.00,North,-999,-999.0,-999.0,-999,0.19,,,0.33,,2013-06-15 16:30:00,
2013-06-15 11:54:00,68.0,-99.9,-100.00,North,-999,-999.0,-999.0,-999,0.19,,,0.33,,2013-06-15 16:54:00,
2013-06-15 12:02:00,68.0,-99.9,-100.00,North,-999,-999.0,-999.0,-999,0.19,,,0.33,,2013-06-15 17:02:00,
2013-06-15 12:12:00,68.0,-99.9,-100.00,North,-999,-999.0,-999.0,-999,0.19,,,0.33,,2013-06-15 17:12:00,
2013-06-15 12:22:00,68.0,-99.9,-100.00,North,-999,-999.0,-999.0,-999,0.19,,,0.33,,2013-06-15 17:22:00,
2013-06-15 12:30:00,71.0,-99.9,-100.00,North,-999,-999.0,-999.0,-999,0.00,,,0.33,,2013-06-15 17:30:00,
2013-06-15 12:52:00,71.0,-99.9,-100.00,North,-999,-999.0,-999.0,-999,0.00,,,0.33,,2013-06-15 17:52:00,
2013-06-15 13:02:00,71.0,-99.9,-100.00,North,-999,-999.0,-999.0,-999,0.00,,,0.33,,2013-06-15 18:02:00,
2013-06-15 13:12:00,71.0,-99.9,-100.00,North,-999,-999.0,-999.0,-999,0.00,,,0.33,,2013-06-15 18:12:00,
2013-06-15 13:22:00,71.0,-99.9,-100.00,North,-999,-999.0,-999.0,-999,0.00,,,0.33,,2013-06-15 18:22:00,
2013-06-15 13:30:00,72.0,-99.9,-100.00,North,-999,-999.0,-999.0,-999,0.00,,,0.33,,2013-06-15 18:30:00,
2013-06-15 13:54:00,72.0,-99.9,-100.00,North,-999,-999.0,-999.0,-999,0.00,,,0.33,,2013-06-15 18:54:00,
2013-06-15 14:02:00,72.0,-99.9,-100.00,North,-999,-999.0,-999.0,-999,0.00,,,0.33,,2013-06-15 19:02:00,
2013-06-15 14:12:00,72.0,-99.9,-100.00,North,-999,-999.0,-999.0,-999,0.00,,,0.33,,2013-06-15 19:12:00,
2013-06-15 14:22:00,72.0,-99.9,-100.00,North,-999,-999.0,-999.0,-999,0.00,,,0.33,,2013-06-15 19:22:00,
2013-06-15 15:30:00,86.0,-99.9,-100.00,North,-999,-999.0,-999.0,-999,-99.99,,,0.33,,2013-06-15 20:30:00,
2013-06-15 16:30:00,78.0,-99.9,-100.00,North,-999,-999.0,-999.0,-999,0.00,,,0.33,,2013-06-15 21:30:00,
2013-06-15 16:53:00,78.0,-99.9,-100.00,North,-999,-999.0,-999.0,-999,0.00,,,0.33,,2013-06-15 21:53:00,
2013-06-15 17:02:00,78.0,-99.9,-100.00,North,-999,-999.0,-999.0,-999,0.00,,,0.33,,2013-06-15 22:02:00,
2013-06-15 17:11:00,78.0,-99.9,-100.00,North,-999,-999.0,-999.0,-999,0.00,,,0.33,,2013-06-15 22:11:00,
2013-06-15 17:22:00,78.0,-99.9,-100.00,North,-999,-999.0,-999.0,-999,0.00,,,0.33,,2013-06-15 22:22:00,
2013-06-15 17:30:00,79.0,-99.9,-100.00,North,-999,-999.0,-999.0,-999,0.00,,,0.33,,2013-06-15 22:30:00,
2013-06-15 18:02:00,79.0,-99.9,-100.00,North,-999,-999.0,-999.0,-999,0.00,,,0.33,,2013-06-15 23:02:00,
2013-06-15 18:12:00,79.0,-99.9,-100.00,North,-999,-999.0,-999.0,-999,0.00,,,0.33,,2013-06-15 23:12:00,
2013-06-15 18:22:00,79.0,-99.9,-100.00,North,-999,-999.0,-999.0,-999,0.00,,,0.33,,2013-06-15 23:22:00,
2013-06-15 18:30:00,79.0,-99.9,-100.00,North,-999,-999.0,-999.0,-999,0.00,,,0.33,,2013-06-15 23:30:00,
2013-06-15 18:53:00,79.0,-99.9,-100.00,North,-999,-999.0,-999.0,-999,0.00,,,0.33,,2013-06-15 23:53:00,
2013-06-15 19:02:00,79.0,-99.9,-100.00,North,-999,-999.0,-999.0,-999,0.00,,,0.33,,2013-06-16 00:02:00,
2013-06-15 19:12:00,79.0,-99.9,-100.00,North,-999,-999.0,-999.0,-999,0.00,,,0.33,,2013-06-16 00:12:00,
2013-06-15 19:22:00,79.0,-99.9,-100.00,North,-999,-999.0,-999.0,-999,0.00,,,0.33,,2013-06-16 00:22:00,
2013-06-15 19:30:00,79.0,-99.9,-100.00,North,-999,-999.0,-999.0,-999,0.00,,,0.33,,2013-06-16 00:30:00,
2013-06-15 19:53:00,79.0,-99.9,-100.00,North,-999,-999.0,-999.0,-999,0.00,,,0.33,,2013-06-16 00:53:00,
2013-06-15 20:02:00,79.0,-99.9,-100.00,North,-999,-999.0,-999.0,-999,0.00,,,0.33,,2013-06-16 01:02:00,
2013-06-15 20:12:00,79.0,-99.9,-100.00,North,-999,-999.0,-999.0,-999,0.00,,,0.33,,2013-06-16 01:12:00,
2013-06-15 20:22:00,79.0,-99.9,-100.00,North,-999,-999.0,-999.0,-999,0.00,,,0.33,,2013-06-16 01:22:00,
2013-06-15 20:30:00,79.0,-99.9,-100.00,North,-999,-999.0,-999.0,-999,0.00,,,0.33,,2013-06-16 01:30:00,
2013-06-15 20:53:00,79.0,-99.9,-100.00,North,-999,-999.0,-999.0,-999,0.00,,,0.33,,2013-06-16 01:53:00,
2013-06-15 21:02:00,79.0,-99.9,-100.00,North,-999,-999.0,-999.0,-999,0.00,,,0.33,,2013-06-16 02:02:00,
2013-06-15 21:22:00,79.0,-99.9,-100.00,North,-999,-999.0,-999.0,-999,0.00,,,0.33,,2013-06-16 02:22:00,
2013-06-15 21:30:00,70.0,-99.9,-100.00,North,-999,-999.0,-999.0,-999,0.00,,,0.33,,2013-06-16 02:30:00,
2013-06-15 21:54:00,70.0,-99.9,-100.00,North,-999,-999.0,-999.0,-999,0.00,,,0.33,,2013-06-16 02:54:00,
2013-06-15 22:02:00,70.0,-99.9,-100.00,North,-999,-999.0,-999.0,-999,0.00,,,0.33,,2013-06-16 03:02:00,
2013-06-15 22:12:00,70.0,-99.9,-100.00,North,-999,-999.0,-999.0,-999,0.00,,,0.33,,2013-06-16 03:12:00,
2013-06-15 22:22:00,70.0,-99.9,-100.00,North,-999,-999.0,-999.0,-999,0.00,,,0.33,,2013-06-16 03:22:00,
2013-06-15 22:30:00,76.0,-99.9,-100.00,North,-999,-999.0,-999.0,-999,0.00,,,0.33,,2013-06-16 03:30:00,
2013-06-15 22:53:00,76.0,-99.9,-100.00,North,-999,-999.0,-999.0,-999,0.00,,,0.33,,2013-06-16 03:53:00,
2013-06-15 23:02:00,76.0,-99.9,-100.00,North,-999,-999.0,-999.0,-999,0.00,,,0.33,,2013-06-16 04:02:00,
2013-06-15 23:12:00,76.0,-99.9,-100.00,North,-999,-999.0,-999.0,-999,0.00,,,0.33,,2013-06-16 04:12:00,
2013-06-15 23:23:00,76.0,-99.9,-100.00,North,-999,-999.0,-999.0,-999,0.00,,,0.33,,2013-06-16 04:23:00,
2013-06-15 23:30:00,67.0,-99.9,-100.00,North,-999,-999.0,-999.0,-999,0.00,,,0.33,,2013-06-16 04:30:00,
2013-06-15 23:54:00,67.0,-99.9,-100.00,North,-999,-999.0,-999.0,-999,0.00,,,0.33,,2013-06-16 04:54:00,